TimePDT,TemperatureF,Dew PointF,Humidity,Sea Level PressureIn,VisibilityMPH,Wind Direction,Wind SpeedMPH,Gust SpeedMPH,PrecipitationIn,Events,Conditions,WindDirDegrees,DateUTC
12:54 AM,57.0,52.0,83,30.13,10.0,SSW,6.9,-,N/A,,Overcast,200,2013-08-01 07:54:00
1:54 AM,57.0,52.0,83,30.13,10.0,SSW,6.9,-,N/A,,Overcast,210,2013-08-01 08:54:00
2:54 AM,57.0,52.0,83,30.12,10.0,SSW,8.1,-,N/A,,Overcast,210,2013-08-01 09:54:00
3:54 AM,57.0,52.0,83,30.11,10.0,SSW,6.9,-,N/A,,Overcast,200,2013-08-01 10:54:00
4:34 AM,55.4,51.8,88,30.08,10.0,SW,8.1,-,N/A,,Scattered Clouds,220,2013-08-01 11:34:00
4:43 AM,57.2,51.8,82,30.08,10.0,SW,5.8,-,N/A,,Mostly Cloudy,220,2013-08-01 11:43:00
4:54 AM,57.0,53.1,87,30.12,10.0,SSW,5.8,-,N/A,,Mostly Cloudy,210,2013-08-01 11:54:00
5:50 AM,55.4,51.8,88,30.09,10.0,SW,9.2,-,N/A,,Mostly Cloudy,220,2013-08-01 12:50:00
5:54 AM,57.0,52.0,83,30.13,10.0,SW,9.2,-,N/A,,Mostly Cloudy,230,2013-08-01 12:54:00
6:54 AM,57.0,52.0,83,30.14,10.0,SW,8.1,-,N/A,,Overcast,230,2013-08-01 13:54:00
7:54 AM,57.9,53.1,84,30.15,10.0,WSW,6.9,-,N/A,,Overcast,250,2013-08-01 14:54:00
8:54 AM,59.0,52.0,78,30.16,10.0,WSW,10.4,-,N/A,,Overcast,240,2013-08-01 15:54:00
9:54 AM,60.1,52.0,75,30.17,10.0,West,10.4,-,N/A,,Overcast,270,2013-08-01 16:54:00
10:51 AM,62.6,53.6,72,30.13,10.0,West,11.5,-,N/A,,Overcast,280,2013-08-01 17:51:00
10:54 AM,62.1,52.0,70,30.17,10.0,WNW,11.5,-,N/A,,Overcast,290,2013-08-01 17:54:00
11:54 AM,64.0,53.1,67,30.17,10.0,WSW,11.5,-,N/A,,Mostly Cloudy,250,2013-08-01 18:54:00
12:05 PM,64.4,53.6,68,30.13,10.0,WSW,6.9,17.3,N/A,,Scattered Clouds,240,2013-08-01 19:05:00
12:54 PM,64.9,52.0,63,30.16,10.0,West,11.5,-,N/A,,Partly Cloudy,270,2013-08-01 19:54:00
1:54 PM,64.9,53.1,65,30.14,10.0,West,11.5,-,N/A,,Partly Cloudy,280,2013-08-01 20:54:00
2:54 PM,66.0,53.1,63,30.13,10.0,West,11.5,-,N/A,,Clear,260,2013-08-01 21:54:00
3:54 PM,66.0,53.1,63,30.11,10.0,WSW,12.7,-,N/A,,Clear,250,2013-08-01 22:54:00
4:54 PM,64.0,52.0,65,30.10,10.0,West,12.7,19.6,N/A,,Clear,270,2013-08-01 23:54:00
5:52 PM,62.6,53.6,72,30.05,10.0,WSW,11.5,-,N/A,,Mostly Cloudy,250,2013-08-02 00:52:00
5:54 PM,62.1,53.1,72,30.09,10.0,West,12.7,-,N/A,,Mostly Cloudy,270,2013-08-02 00:54:00
6:03 PM,62.6,53.6,72,30.05,10.0,West,9.2,-,N/A,,Mostly Cloudy,270,2013-08-02 01:03:00
6:50 PM,60.8,51.8,72,30.04,10.0,SW,10.4,-,N/A,,Scattered Clouds,230,2013-08-02 01:50:00
6:54 PM,61.0,52.0,72,30.08,10.0,WSW,11.5,-,N/A,,Scattered Clouds,240,2013-08-02 01:54:00
7:36 PM,60.8,51.8,72,30.04,10.0,SW,11.5,-,N/A,,Mostly Cloudy,230,2013-08-02 02:36:00
7:54 PM,59.0,52.0,78,30.07,10.0,SW,9.2,-,N/A,,Overcast,230,2013-08-02 02:54:00
8:54 PM,57.9,53.1,84,30.07,10.0,SSW,6.9,-,N/A,,Overcast,200,2013-08-02 03:54:00
9:54 PM,57.9,53.1,84,30.07,10.0,SSW,6.9,-,N/A,,Overcast,200,2013-08-02 04:54:00
10:52 PM,57.2,51.8,82,30.02,10.0,SSW,5.8,-,N/A,,Scattered Clouds,200,2013-08-02 05:52:00
10:54 PM,57.0,52.0,83,30.06,10.0,SSW,5.8,-,N/A,,Scattered Clouds,200,2013-08-02 05:54:00
11:54 PM,55.9,52.0,87,30.04,10.0,South,6.9,-,N/A,,Partly Cloudy,180,2013-08-02 06:54:00